,,PA_Meas_PMT16A,,PR_Meas_QMR101_102,,RH_Meas_QMH101,,SR_Meas_QMS101,,TA_Meas_QMH101,,GenWind,,GenWind,
time,status,PA,status,PR,status,RH,status,SR,status,TA,status,DirAvg,status,SpdAvg,
2012-02-04, 00:00:04,VALID,918.149,VALID,0,VALID,90.3908,VALID,0,VALID,20.4618,VALID,133,VALID,1.63008,
2012-02-04, 00:01:04,VALID,918.134,VALID,0,VALID,90.4976,VALID,0,VALID,20.4439,VALID,136,VALID,1.89609,
2012-02-04, 00:02:04,VALID,918.115,VALID,0,VALID,90.3985,VALID,0,VALID,20.4439,VALID,155,VALID,1.61758,
2012-02-04, 00:03:04,VALID,918.135,VALID,0,VALID,90.0402,VALID,0,VALID,20.4618,VALID,135,VALID,2.42734,
2012-02-04, 00:04:04,VALID,918.125,VALID,0,VALID,89.7429,VALID,0,VALID,20.4439,VALID,129,VALID,2.41719,
2012-02-04, 00:05:04,VALID,918.101,VALID,0,VALID,89.5523,VALID,0,VALID,20.5414,VALID,130,VALID,2.32891,
2012-02-04, 00:06:04,VALID,918.073,VALID,0,VALID,89.6514,VALID,0,VALID,20.5204,VALID,123,VALID,1.92188,
2012-02-04, 00:07:04,VALID,918.08,VALID,0,VALID,89.9029,VALID,0,VALID,20.4618,VALID,131,VALID,1.06719,
2012-02-04, 00:08:04,VALID,918.051,VALID,0,VALID,89.781,VALID,0,VALID,20.4618,VALID,123,VALID,1.6207,
2012-02-04, 00:09:04,VALID,918.077,VALID,0,VALID,89.5218,VALID,0,VALID,20.4423,VALID,123,VALID,2.32305,
2012-02-04, 00:10:04,VALID,918.055,VALID,0,VALID,89.8115,VALID,0,VALID,20.4228,VALID,125,VALID,1.69258,
2012-02-04, 00:11:04,VALID,918.04,VALID,0,VALID,89.8725,VALID,0,VALID,20.4244,VALID,131,VALID,1.66055,
2012-02-04, 00:12:04,VALID,917.997,VALID,0,VALID,89.7352,VALID,0,VALID,20.4049,VALID,121,VALID,2.26211,
2012-02-04, 00:13:04,VALID,918.001,VALID,0,VALID,89.7505,VALID,0,VALID,20.4049,VALID,127,VALID,1.71133,
2012-02-04, 00:14:04,VALID,917.977,VALID,0,VALID,89.6056,VALID,0,VALID,20.4033,VALID,129,VALID,2.15664,
2012-02-04, 00:15:04,VALID,917.947,VALID,0,VALID,89.7429,VALID,0,VALID,20.3838,VALID,141,VALID,1.14023,
2012-02-04, 00:16:04,VALID,917.917,VALID,0,VALID,89.7047,VALID,0,VALID,20.3838,VALID,135,VALID,1.01016,
2012-02-04, 00:17:04,VALID,917.944,VALID,0,VALID,89.8953,VALID,0,VALID,20.3659,VALID,135,VALID,1.22773,
2012-02-04, 00:18:04,VALID,917.929,VALID,0,VALID,90.063,VALID,0,VALID,20.3269,VALID,135,VALID,1.34141,
2012-02-04, 00:19:04,VALID,917.907,VALID,0,VALID,90.1774,VALID,0,VALID,20.3074,VALID,121,VALID,1.6418,
2012-02-04, 00:20:04,VALID,917.886,VALID,0,VALID,90.2155,VALID,0,VALID,20.3074,VALID,125,VALID,1.82773,
2012-02-04, 00:21:04,VALID,917.842,VALID,0,VALID,89.8725,VALID,0,VALID,20.3253,VALID,120,VALID,2.63789,
2012-02-04, 00:22:04,VALID,917.893,VALID,0,VALID,89.7886,VALID,0,VALID,20.4049,VALID,132,VALID,1.79336,
2012-02-04, 00:23:04,VALID,917.846,VALID,0,VALID,89.9868,VALID,0,VALID,20.3269,VALID,119,VALID,1.64102,
2012-02-04, 00:24:04,VALID,917.825,VALID,0,VALID,90.1545,VALID,0,VALID,20.3269,VALID,166,VALID,1.67695,
2012-02-04, 00:25:04,VALID,917.844,VALID,0,VALID,90.4137,VALID,0,VALID,20.2879,VALID,119,VALID,1.90898,
2012-02-04, 00:26:04,VALID,917.814,VALID,0,VALID,90.2536,VALID,0,VALID,20.3269,VALID,95,VALID,1.45391,
2012-02-04, 00:27:04,VALID,917.82,VALID,0,VALID,90.1316,VALID,0,VALID,20.2684,VALID,94,VALID,1.24688,
2012-02-04, 00:28:04,VALID,917.803,VALID,0,VALID,89.9868,VALID,0,VALID,20.2684,VALID,119,VALID,1.66133,
2012-02-04, 00:29:04,VALID,917.813,VALID,0,VALID,90.246,VALID,0,VALID,20.2684,VALID,108,VALID,1.11797,
2012-02-04, 00:30:04,VALID,917.779,VALID,0,VALID,90.4137,VALID,0,VALID,20.2879,VALID,123,VALID,2.63047,
2012-02-04, 00:31:04,VALID,917.781,VALID,0,VALID,90.5052,VALID,0,VALID,20.2684,VALID,93,VALID,1.44492,
2012-02-04, 00:32:04,VALID,917.758,VALID,0,VALID,90.8406,VALID,0,VALID,20.2293,VALID,113,VALID,1.26719,
2012-02-04, 00:33:04,VALID,917.753,VALID,0,VALID,91.0617,VALID,0,VALID,20.2083,VALID,137,VALID,1.83359,
2012-02-04, 00:34:04,VALID,917.729,VALID,0,VALID,90.9702,VALID,0,VALID,20.1903,VALID,117,VALID,1.72539,
2012-02-04, 00:35:04,VALID,917.72,VALID,0,VALID,90.8635,VALID,0,VALID,20.1903,VALID,135,VALID,1.47773,
2012-02-04, 00:36:04,VALID,917.711,VALID,0,VALID,90.7949,VALID,0,VALID,20.1903,VALID,98,VALID,1.51641,
2012-02-04, 00:37:04,VALID,917.708,VALID,0,VALID,91.0693,VALID,0,VALID,20.1708,VALID,96,VALID,0.892969,
2012-02-04, 00:38:04,VALID,917.71,VALID,0,VALID,91.3819,VALID,0,VALID,20.1513,VALID,142,VALID,0.932813,
2012-02-04, 00:39:04,VALID,917.676,VALID,0,VALID,91.6258,VALID,0,VALID,20.1123,VALID,122,VALID,1.06289,
2012-02-04, 00:40:04,VALID,917.681,VALID,0,VALID,91.5496,VALID,0,VALID,20.0733,VALID,140,VALID,1.68984,
2012-02-04, 00:41:04,VALID,917.674,VALID,0,VALID,91.3895,VALID,0,VALID,20.0718,VALID,124,VALID,2.24883,
2012-02-04, 00:42:04,VALID,917.647,VALID,0,VALID,90.8406,VALID,0,VALID,20.0913,VALID,108,VALID,1.93516,
2012-02-04, 00:43:04,VALID,917.626,VALID,0,VALID,90.5128,VALID,0,VALID,20.1318,VALID,136,VALID,1.99258,
2012-02-04, 00:44:04,VALID,917.63,VALID,0,VALID,90.3756,VALID,0,VALID,20.1318,VALID,134,VALID,1.13828,
2012-02-04, 00:45:04,VALID,917.612,VALID,0,VALID,90.4137,VALID,0,VALID,20.1513,VALID,127,VALID,1.62969,
2012-02-04, 00:46:04,VALID,917.61,VALID,0,VALID,90.5738,VALID,0,VALID,20.1318,VALID,138,VALID,1.62578,
2012-02-04, 00:47:04,VALID,917.608,VALID,0,VALID,90.8254,VALID,0,VALID,20.0944,VALID,128,VALID,0.924219,
2012-02-04, 00:48:04,VALID,917.643,VALID,0,VALID,90.6424,VALID,0,VALID,20.0538,VALID,133,VALID,1.19961,
2012-02-04, 00:49:04,VALID,917.602,VALID,0,VALID,90.6653,VALID,0,VALID,20.0538,VALID,127,VALID,1.64609,
2012-02-04, 00:50:04,VALID,917.612,VALID,0,VALID,90.5128,VALID,0,VALID,20.0343,VALID,131,VALID,1.475,
2012-02-04, 00:51:04,VALID,917.558,VALID,0,VALID,90.5967,VALID,0,VALID,20.0538,VALID,118,VALID,1.61797,
2012-02-04, 00:52:04,VALID,917.548,VALID,0,VALID,90.4442,VALID,0,VALID,20.0148,VALID,138,VALID,2.15586,
2012-02-04, 00:53:04,VALID,917.531,VALID,0,VALID,90.4213,VALID,0,VALID,20.0928,VALID,152,VALID,0.721094,
2012-02-04, 00:54:04,VALID,917.519,VALID,0,VALID,90.4442,VALID,0,VALID,20.0733,VALID,133,VALID,1.74258,
2012-02-04, 00:55:04,VALID,917.491,VALID,0,VALID,90.5204,VALID,0,VALID,20.0733,VALID,123,VALID,1.14805,
2012-02-04, 00:56:04,VALID,917.479,VALID,0,VALID,90.3756,VALID,0,VALID,20.0944,VALID,133,VALID,1.94531,
2012-02-04, 00:57:04,VALID,917.462,VALID,0,VALID,90.4213,VALID,0,VALID,20.0538,VALID,159,VALID,1.49922,
2012-02-04, 00:58:04,VALID,917.433,VALID,0,VALID,90.4518,VALID,0,VALID,20.0148,VALID,116,VALID,0.894141,
2012-02-04, 00:59:04,VALID,917.412,VALID,0,VALID,90.3832,VALID,0,VALID,20.0148,VALID,115,VALID,1.3875,
2012-02-04, 01:00:05,VALID,917.421,VALID,0,VALID,89.9792,VALID,0,VALID,19.9953,VALID,131,VALID,1.67266,
2012-02-04, 01:01:05,VALID,917.407,VALID,0,VALID,89.9182,VALID,0,VALID,20.0343,VALID,125,VALID,1.67109,
2012-02-04, 01:02:05,VALID,917.362,VALID,0,VALID,89.7505,VALID,0,VALID,20.0343,VALID,106,VALID,1.79922,
2012-02-04, 01:03:05,VALID,917.395,VALID,0,VALID,89.7276,VALID,0,VALID,19.9758,VALID,109,VALID,1.46992,
2012-02-04, 01:04:05,VALID,917.364,VALID,0,VALID,89.8648,VALID,0,VALID,19.9743,VALID,120,VALID,1.05586,
2012-02-04, 01:05:05,VALID,917.388,VALID,0,VALID,90.0325,VALID,0,VALID,19.9563,VALID,94,VALID,1.28945,
2012-02-04, 01:06:05,VALID,917.368,VALID,0,VALID,90.2231,VALID,0,VALID,19.9563,VALID,123,VALID,1.79414,
2012-02-04, 01:07:05,VALID,917.336,VALID,0,VALID,90.2612,VALID,0,VALID,19.9173,VALID,120,VALID,1.55313,
2012-02-04, 01:08:05,VALID,917.358,VALID,0,VALID,90.2994,VALID,0,VALID,19.8783,VALID,168,VALID,1.47969,
2012-02-04, 01:09:05,VALID,917.324,VALID,0,VALID,90.4366,VALID,0,VALID,19.8783,VALID,147,VALID,1.10859,
2012-02-04, 01:10:05,VALID,917.349,VALID,0,VALID,90.4671,VALID,0,VALID,19.8393,VALID,147,VALID,1.00391,
2012-02-04, 01:11:05,VALID,917.333,VALID,0,VALID,90.4442,VALID,0,VALID,19.8393,VALID,129,VALID,1.14023,
2012-02-04, 01:12:05,VALID,917.34,VALID,0,VALID,90.5128,VALID,0,VALID,19.8603,VALID,131,VALID,1.73984,
2012-02-04, 01:13:05,VALID,917.299,VALID,0,VALID,90.4366,VALID,0,VALID,19.8588,VALID,153,VALID,1.57422,
2012-02-04, 01:14:05,VALID,917.328,VALID,0,VALID,90.3146,VALID,0,VALID,19.8573,VALID,166,VALID,1.35508,
2012-02-04, 01:15:05,VALID,917.312,VALID,0,VALID,90.2841,VALID,0,VALID,19.8573,VALID,155,VALID,1.53789,
2012-02-04, 01:16:05,VALID,917.306,VALID,0,VALID,90.246,VALID,0,VALID,19.8378,VALID,126,VALID,0.823828,
2012-02-04, 01:17:05,VALID,917.316,VALID,0,VALID,90.3527,VALID,0.107441,VALID,19.8378,VALID,134,VALID,0.946094,
2012-02-04, 01:18:05,VALID,917.293,VALID,0,VALID,90.3451,VALID,0,VALID,19.8378,VALID,143,VALID,1.21367,
2012-02-04, 01:19:05,VALID,917.273,VALID,0,VALID,90.4899,VALID,0.107441,VALID,19.8378,VALID,152,VALID,0.785156,
2012-02-04, 01:20:05,VALID,917.263,VALID,0,VALID,90.711,VALID,0.107441,VALID,19.8183,VALID,166,VALID,0.629687,
2012-02-04, 01:21:05,VALID,917.27,VALID,0,VALID,90.5814,VALID,0.107441,VALID,19.8003,VALID,133,VALID,1.17266,
2012-02-04, 01:22:05,VALID,917.25,VALID,0,VALID,90.6805,VALID,0,VALID,19.7793,VALID,132,VALID,0.613672,
2012-02-04, 01:23:05,VALID,917.279,VALID,0,VALID,90.8864,VALID,0,VALID,19.7403,VALID,133,VALID,0.541406,
2012-02-04, 01:24:05,VALID,917.271,VALID,0,VALID,91.0388,VALID,0,VALID,19.7208,VALID,132,VALID,0.198437,
2012-02-04, 01:25:05,VALID,917.243,VALID,0,VALID,91.1608,VALID,0,VALID,19.6623,VALID,133,VALID,0.566406,
2012-02-04, 01:26:05,VALID,917.227,VALID,0,VALID,91.3361,VALID,0,VALID,19.6623,VALID,133,VALID,0.421094,
2012-02-04, 01:27:05,VALID,917.217,VALID,0,VALID,91.42,VALID,0,VALID,19.6233,VALID,151,VALID,0.755078,
2012-02-04, 01:28:05,VALID,917.196,VALID,0,VALID,91.237,VALID,0,VALID,19.6443,VALID,127,VALID,1.11914,
2012-02-04, 01:29:05,VALID,917.227,VALID,0,VALID,91.1913,VALID,0,VALID,19.6248,VALID,127,VALID,0.766406,
2012-02-04, 01:30:05,VALID,917.19,VALID,0,VALID,91.2523,VALID,0,VALID,19.6248,VALID,127,VALID,0.964063,
2012-02-04, 01:31:05,VALID,917.179,VALID,0,VALID,91.4276,VALID,0,VALID,19.6053,VALID,127,VALID,0.878516,
2012-02-04, 01:32:05,VALID,917.158,VALID,0,VALID,91.664,VALID,0,VALID,19.6053,VALID,128,VALID,0.855469,
2012-02-04, 01:33:05,VALID,917.165,VALID,0,VALID,91.8317,VALID,0,VALID,19.6068,VALID,140,VALID,0.832812,
2012-02-04, 01:34:05,VALID,917.141,VALID,0,VALID,91.9918,VALID,0,VALID,19.5663,VALID,98,VALID,1.08047,
2012-02-04, 01:35:05,VALID,917.111,VALID,0,VALID,92.2586,VALID,0,VALID,19.5273,VALID,127,VALID,1.36602,
2012-02-04, 01:36:05,VALID,917.107,VALID,0,VALID,92.3653,VALID,0,VALID,19.5078,VALID,129,VALID,0.966797,
2012-02-04, 01:37:05,VALID,917.063,VALID,0,VALID,92.2205,VALID,0,VALID,19.5273,VALID,122,VALID,1.37578,
2012-02-04, 01:38:05,VALID,917.037,VALID,0,VALID,92.2205,VALID,0,VALID,19.5288,VALID,145,VALID,0.848828,
2012-02-04, 01:39:05,VALID,917.027,VALID,0,VALID,92.2433,VALID,0,VALID,19.5078,VALID,129,VALID,1.07539,
2012-02-04, 01:40:05,VALID,917.034,VALID,0,VALID,92.2891,VALID,0,VALID,19.4883,VALID,129,VALID,0.894922,
2012-02-04, 01:41:05,VALID,917.016,VALID,0,VALID,92.3501,VALID,0,VALID,19.4493,VALID,129,VALID,1.00156,
2012-02-04, 01:42:05,VALID,916.97,VALID,0,VALID,92.4873,VALID,0,VALID,19.4298,VALID,117,VALID,1.65859,
2012-02-04, 01:43:05,VALID,916.976,VALID,0,VALID,92.6397,VALID,0,VALID,19.3908,VALID,99,VALID,1.47891,
2012-02-04, 01:44:05,VALID,916.972,VALID,0,VALID,92.7541,VALID,0,VALID,19.3923,VALID,127,VALID,1.87578,
2012-02-04, 01:45:05,VALID,916.945,VALID,0,VALID,92.8456,VALID,0,VALID,19.3908,VALID,93,VALID,1.31484,
2012-02-04, 01:46:05,VALID,916.932,VALID,0,VALID,92.9904,VALID,0,VALID,19.3518,VALID,108,VALID,1.0793,
2012-02-04, 01:47:05,VALID,916.934,VALID,0,VALID,93.0362,VALID,0,VALID,19.3518,VALID,108,VALID,1.35938,
2012-02-04, 01:48:05,VALID,916.924,VALID,0,VALID,92.9828,VALID,0,VALID,19.3323,VALID,108,VALID,1.35039,
2012-02-04, 01:49:05,VALID,916.945,VALID,0,VALID,92.8151,VALID,0,VALID,19.3128,VALID,108,VALID,1.0043,
2012-02-04, 01:50:05,VALID,916.945,VALID,0,VALID,92.6245,VALID,0,VALID,19.3533,VALID,109,VALID,1.37891,
2012-02-04, 01:51:05,VALID,916.944,VALID,0,VALID,92.472,VALID,0,VALID,19.3713,VALID,108,VALID,1.01367,
2012-02-04, 01:52:05,VALID,916.89,VALID,0,VALID,92.4187,VALID,0,VALID,19.3518,VALID,109,VALID,0.877734,
2012-02-04, 01:53:05,VALID,916.892,VALID,0,VALID,92.2586,VALID,0,VALID,19.3518,VALID,140,VALID,1.49688,
2012-02-04, 01:54:05,VALID,916.87,VALID,0,VALID,92.1137,VALID,0,VALID,19.3908,VALID,153,VALID,1.09727,
2012-02-04, 01:55:05,VALID,916.855,VALID,0,VALID,92.1214,VALID,0,VALID,19.3908,VALID,150,VALID,0.81875,
2012-02-04, 01:56:05,VALID,916.831,VALID,0,VALID,92.1671,VALID,0,VALID,19.3908,VALID,143,VALID,0.940625,
2012-02-04, 01:57:05,VALID,916.792,VALID,0,VALID,92.2586,VALID,0,VALID,19.3518,VALID,159,VALID,1.08086,
2012-02-04, 01:58:05,VALID,916.783,VALID,0,VALID,92.3043,VALID,0,VALID,19.3518,VALID,159,VALID,1.71133,
2012-02-04, 01:59:05,VALID,916.801,VALID,0,VALID,92.3958,VALID,0,VALID,19.3533,VALID,161,VALID,1.48203,
2012-02-04, 02:00:05,VALID,916.794,VALID,0,VALID,92.411,VALID,0,VALID,19.3323,VALID,159,VALID,0.404687,
2012-02-04, 02:01:05,VALID,916.766,VALID,0,VALID,92.3043,VALID,0,VALID,19.3533,VALID,163,VALID,1.43398,
2012-02-04, 02:02:05,VALID,916.768,VALID,0,VALID,92.1671,VALID,0,VALID,19.3518,VALID,156,VALID,1.19141,
2012-02-04, 02:03:05,VALID,916.735,VALID,0,VALID,91.8545,VALID,0,VALID,19.3713,VALID,143,VALID,1.27344,
2012-02-04, 02:04:05,VALID,916.733,VALID,0,VALID,91.7859,VALID,0,VALID,19.4103,VALID,149,VALID,1.30625,
2012-02-04, 02:05:05,VALID,916.728,VALID,0,VALID,91.7097,VALID,0,VALID,19.3908,VALID,138,VALID,1.98516,
2012-02-04, 02:06:05,VALID,916.689,VALID,0,VALID,91.6335,VALID,0,VALID,19.4298,VALID,132,VALID,0.973828,
2012-02-04, 02:07:05,VALID,916.665,VALID,0,VALID,91.6868,VALID,0,VALID,19.3908,VALID,162,VALID,1.00234,
2012-02-04, 02:08:05,VALID,916.648,VALID,0,VALID,91.7097,VALID,0,VALID,19.4118,VALID,163,VALID,1.54766,
2012-02-04, 02:09:05,VALID,916.665,VALID,0,VALID,91.8012,VALID,0,VALID,19.3713,VALID,165,VALID,1.09648,
2012-02-04, 02:10:05,VALID,916.633,VALID,0,VALID,91.8088,VALID,0,VALID,19.3518,VALID,165,VALID,1.26055,
2012-02-04, 02:11:05,VALID,916.576,VALID,0,VALID,91.8469,VALID,0,VALID,19.3713,VALID,165,VALID,0.574219,
2012-02-04, 02:12:05,VALID,916.578,VALID,0,VALID,91.9308,VALID,0,VALID,19.3518,VALID,149,VALID,1.18008,
2012-02-04, 02:13:05,VALID,916.541,VALID,0,VALID,91.946,VALID,0,VALID,19.3323,VALID,163,VALID,1.31641,
2012-02-04, 02:14:05,VALID,916.527,VALID,0,VALID,91.9765,VALID,0,VALID,19.3323,VALID,163,VALID,0.768359,
2012-02-04, 02:15:05,VALID,916.519,VALID,0,VALID,92.0299,VALID,0,VALID,19.3128,VALID,163,VALID,1.23398,
2012-02-04, 02:16:05,VALID,916.521,VALID,0,VALID,92.0756,VALID,0,VALID,19.2933,VALID,171,VALID,1.34219,
2012-02-04, 02:17:05,VALID,916.531,VALID,0,VALID,91.9841,VALID,0,VALID,19.3128,VALID,160,VALID,1.87188,
2012-02-04, 02:18:05,VALID,916.525,VALID,0,VALID,91.7478,VALID,0,VALID,19.3518,VALID,166,VALID,1.77773,
2012-02-04, 02:19:05,VALID,916.519,VALID,0,VALID,91.5648,VALID,0,VALID,19.3713,VALID,166,VALID,1.16602,
2012-02-04, 02:20:05,VALID,916.512,VALID,0,VALID,91.5725,VALID,0,VALID,19.3713,VALID,163,VALID,0.563281,
2012-02-04, 02:21:05,VALID,916.523,VALID,0,VALID,91.5725,VALID,0,VALID,19.3713,VALID,186,VALID,0.650391,
2012-02-04, 02:22:05,VALID,916.5,VALID,0,VALID,91.6106,VALID,0,VALID,19.3518,VALID,175,VALID,0.903125,
2012-02-04, 02:23:05,VALID,916.484,VALID,0,VALID,91.664,VALID,0,VALID,19.3518,VALID,169,VALID,0.760547,
2012-02-04, 02:24:05,VALID,916.441,VALID,0,VALID,91.8164,VALID,0,VALID,19.3533,VALID,169,VALID,0.6,
2012-02-04, 02:25:05,VALID,916.435,VALID,0,VALID,91.824,VALID,0,VALID,19.3323,VALID,164,VALID,0.661719,
2012-02-04, 02:26:05,VALID,916.451,VALID,0,VALID,91.6868,VALID,0,VALID,19.3323,VALID,139,VALID,1.62773,
2012-02-04, 02:27:05,VALID,916.44,VALID,0,VALID,91.5953,VALID,0,VALID,19.3713,VALID,144,VALID,0.574219,
2012-02-04, 02:28:05,VALID,916.441,VALID,0,VALID,91.6258,VALID,0,VALID,19.3323,VALID,144,VALID,0.826172,
2012-02-04, 02:29:05,VALID,916.44,VALID,0,VALID,91.5953,VALID,0,VALID,19.3323,VALID,144,VALID,0.616016,
2012-02-04, 02:30:05,VALID,916.446,VALID,0,VALID,91.5191,VALID,0,VALID,19.3323,VALID,166,VALID,2.21797,
2012-02-04, 02:31:05,VALID,916.43,VALID,0,VALID,91.5039,VALID,0,VALID,19.3518,VALID,170,VALID,1.65313,
2012-02-04, 02:32:05,VALID,916.458,VALID,0,VALID,91.3895,VALID,0,VALID,19.3518,VALID,181,VALID,0.872656,
2012-02-04, 02:33:05,VALID,916.45,VALID,0,VALID,91.3133,VALID,0,VALID,19.3713,VALID,176,VALID,0.716406,
2012-02-04, 02:34:05,VALID,916.425,VALID,0,VALID,91.298,VALID,0,VALID,19.3908,VALID,176,VALID,0.644141,
2012-02-04, 02:35:05,VALID,916.411,VALID,0,VALID,91.1913,VALID,0,VALID,19.3713,VALID,172,VALID,1.61953,
2012-02-04, 02:36:05,VALID,916.412,VALID,0,VALID,91.1761,VALID,0,VALID,19.3713,VALID,180,VALID,0.623438,
2012-02-04, 02:37:05,VALID,916.404,VALID,0,VALID,91.2142,VALID,0,VALID,19.3908,VALID,180,VALID,0.702734,
2012-02-04, 02:38:05,VALID,916.424,VALID,0,VALID,91.2752,VALID,0,VALID,19.3713,VALID,180,VALID,0.605469,
2012-02-04, 02:39:05,VALID,916.399,VALID,0,VALID,91.3285,VALID,0,VALID,19.3728,VALID,179,VALID,0.533594,
2012-02-04, 02:40:05,VALID,916.381,VALID,0,VALID,91.4124,VALID,0,VALID,19.3518,VALID,169,VALID,0.466016,
2012-02-04, 02:41:05,VALID,916.385,VALID,0,VALID,91.4505,VALID,0,VALID,19.3518,VALID,169,VALID,0.759766,
2012-02-04, 02:42:05,VALID,916.37,VALID,0,VALID,91.4505,VALID,0,VALID,19.3323,VALID,182,VALID,0.748438,
2012-02-04, 02:43:05,VALID,916.367,VALID,0,VALID,91.5267,VALID,0,VALID,19.3533,VALID,173,VALID,0.632813,
2012-02-04, 02:44:05,VALID,916.376,VALID,0,VALID,91.5725,VALID,0,VALID,19.3128,VALID,173,VALID,0.201172,
2012-02-04, 02:45:05,VALID,916.382,VALID,0,VALID,91.7173,VALID,0,VALID,19.3128,VALID,173,VALID,0.267969,
2012-02-04, 02:46:05,VALID,916.366,VALID,0,VALID,91.7173,VALID,0,VALID,19.2933,VALID,173,VALID,0.39375,
2012-02-04, 02:47:05,VALID,916.358,VALID,0,VALID,91.8088,VALID,0,VALID,19.2543,VALID,173,VALID,0.147656,
2012-02-04, 02:48:05,VALID,916.333,VALID,0,VALID,91.8774,VALID,0,VALID,19.2153,VALID,173,VALID,0.385156,
2012-02-04, 02:49:05,VALID,916.317,VALID,0,VALID,91.9231,VALID,0,VALID,19.1958,VALID,173,VALID,0.422656,
2012-02-04, 02:50:05,VALID,916.336,VALID,0,VALID,91.9384,VALID,0,VALID,19.2153,VALID,173,VALID,0.293359,
2012-02-04, 02:51:05,VALID,916.337,VALID,0,VALID,91.8774,VALID,0,VALID,19.2168,VALID,173,VALID,0.867578,
2012-02-04, 02:52:05,VALID,916.306,VALID,0,VALID,91.8698,VALID,0,VALID,19.2363,VALID,173,VALID,0.383203,
2012-02-04, 02:53:05,VALID,916.301,VALID,0,VALID,91.7935,VALID,0,VALID,19.2348,VALID,173,VALID,0.459375,
2012-02-04, 02:54:05,VALID,916.26,VALID,0,VALID,91.7097,VALID,0,VALID,19.2543,VALID,173,VALID,0.200781,
2012-02-04, 02:55:05,VALID,916.24,VALID,0,VALID,91.824,VALID,0,VALID,19.2543,VALID,173,VALID,0.366406,
2012-02-04, 02:56:05,VALID,916.255,VALID,0,VALID,91.7021,VALID,0,VALID,19.2543,VALID,173,VALID,1.04922,
2012-02-04, 02:57:05,VALID,916.252,VALID,0,VALID,91.5953,VALID,0,VALID,19.2753,VALID,173,VALID,0.571875,
2012-02-04, 02:58:05,VALID,916.22,VALID,0,VALID,91.542,VALID,0.107441,VALID,19.2319,VALID,173,VALID,0.553516,
2012-02-04, 02:59:05,VALID,916.218,VALID,0,VALID,91.5267,VALID,0,VALID,19.2528,VALID,173,VALID,0.489453,
2012-02-04, 03:00:05,VALID,916.228,VALID,0,VALID,91.5039,VALID,0.107441,VALID,19.2528,VALID,173,VALID,0.752734,
2012-02-04, 03:01:05,VALID,916.229,VALID,0,VALID,91.5648,VALID,0.107441,VALID,19.2528,VALID,173,VALID,0.553906,
2012-02-04, 03:02:05,VALID,916.2,VALID,0,VALID,91.6792,VALID,0,VALID,19.2334,VALID,173,VALID,0.569531,
2012-02-04, 03:03:05,VALID,916.193,VALID,0,VALID,91.7783,VALID,0.107441,VALID,19.1944,VALID,173,VALID,0.608984,
2012-02-04, 03:04:05,VALID,916.168,VALID,0,VALID,91.7935,VALID,0,VALID,19.1944,VALID,173,VALID,0.557422,
2012-02-04, 03:05:05,VALID,916.203,VALID,0,VALID,91.9231,VALID,0.107441,VALID,19.1749,VALID,173,VALID,0.469531,
2012-02-04, 03:06:05,VALID,916.163,VALID,0,VALID,92.0299,VALID,0.107441,VALID,19.1554,VALID,173,VALID,0.662109,
2012-02-04, 03:07:05,VALID,916.137,VALID,0,VALID,92.1823,VALID,0,VALID,19.1359,VALID,173,VALID,0.839063,
2012-02-04, 03:08:05,VALID,916.138,VALID,0,VALID,92.2814,VALID,0,VALID,19.1164,VALID,131,VALID,1.44531,
2012-02-04, 03:09:05,VALID,916.131,VALID,0,VALID,92.4034,VALID,0,VALID,19.0969,VALID,136,VALID,0.684766,
2012-02-04, 03:10:05,VALID,916.106,VALID,0,VALID,92.5483,VALID,0.107441,VALID,19.0774,VALID,143,VALID,1.31992,
2012-02-04, 03:11:05,VALID,916.097,VALID,0,VALID,92.6855,VALID,0.107441,VALID,19.0579,VALID,143,VALID,1.11953,
2012-02-04, 03:12:05,VALID,916.108,VALID,0,VALID,92.7541,VALID,0.107441,VALID,19.0579,VALID,143,VALID,1.13711,
2012-02-04, 03:13:05,VALID,916.121,VALID,0,VALID,92.7236,VALID,0,VALID,19.0788,VALID,137,VALID,1.60234,
2012-02-04, 03:14:05,VALID,916.11,VALID,0,VALID,92.6626,VALID,0,VALID,19.0788,VALID,135,VALID,1.01328,
2012-02-04, 03:15:05,VALID,916.076,VALID,0,VALID,92.5254,VALID,0,VALID,19.1193,VALID,138,VALID,1.43047,
2012-02-04, 03:16:05,VALID,916.075,VALID,0,VALID,92.4034,VALID,0,VALID,19.1178,VALID,138,VALID,1.2707,
2012-02-04, 03:17:05,VALID,916.11,VALID,0,VALID,92.3577,VALID,0,VALID,19.1373,VALID,138,VALID,1.21484,
2012-02-04, 03:18:05,VALID,916.06,VALID,0,VALID,92.3729,VALID,0,VALID,19.1388,VALID,138,VALID,0.891016,
2012-02-04, 03:19:05,VALID,916.107,VALID,0,VALID,92.4415,VALID,0,VALID,19.0983,VALID,138,VALID,0.730469,
2012-02-04, 03:20:05,VALID,916.107,VALID,0,VALID,92.6093,VALID,0,VALID,19.0788,VALID,138,VALID,0.757031,
2012-02-04, 03:21:05,VALID,916.075,VALID,0,VALID,92.7617,VALID,0,VALID,19.0593,VALID,137,VALID,0.696484,
2012-02-04, 03:22:05,VALID,916.102,VALID,0,VALID,92.7998,VALID,0,VALID,19.0608,VALID,120,VALID,0.955859,
2012-02-04, 03:23:05,VALID,916.102,VALID,0,VALID,92.8227,VALID,0,VALID,19.0398,VALID,121,VALID,1.18477,
2012-02-04, 03:24:05,VALID,916.082,VALID,0,VALID,92.8075,VALID,0,VALID,19.0608,VALID,136,VALID,0.585156,
2012-02-04, 03:25:05,VALID,916.079,VALID,0,VALID,92.7389,VALID,0,VALID,19.0593,VALID,136,VALID,1.18828,
2012-02-04, 03:26:05,VALID,916.078,VALID,0,VALID,92.7007,VALID,0,VALID,19.0593,VALID,123,VALID,0.802344,
2012-02-04, 03:27:05,VALID,916.058,VALID,0,VALID,92.6702,VALID,0,VALID,19.0803,VALID,141,VALID,1.15547,
2012-02-04, 03:28:05,VALID,916.058,VALID,0,VALID,92.594,VALID,0.107441,VALID,19.0774,VALID,127,VALID,1.09531,
2012-02-04, 03:29:05,VALID,916.026,VALID,0,VALID,92.594,VALID,0,VALID,19.0774,VALID,127,VALID,0.693359,
2012-02-04, 03:30:05,VALID,916.086,VALID,0,VALID,92.6016,VALID,0,VALID,19.0788,VALID,138,VALID,0.926953,
2012-02-04, 03:31:05,VALID,916.056,VALID,0,VALID,92.594,VALID,0,VALID,19.0593,VALID,130,VALID,0.976953,
2012-02-04, 03:32:05,VALID,916.069,VALID,0,VALID,92.5864,VALID,0,VALID,19.0774,VALID,130,VALID,0.728516,
2012-02-04, 03:33:05,VALID,916.083,VALID,0,VALID,92.6169,VALID,0.107441,VALID,19.0579,VALID,130,VALID,0.499609,
2012-02-04, 03:34:05,VALID,916.052,VALID,0,VALID,92.6321,VALID,0.107441,VALID,19.0579,VALID,130,VALID,0.712109,
2012-02-04, 03:35:05,VALID,916.067,VALID,0,VALID,92.6626,VALID,0,VALID,19.0579,VALID,129,VALID,0.679297,
2012-02-04, 03:36:05,VALID,916.082,VALID,0,VALID,92.716,VALID,0,VALID,19.0593,VALID,130,VALID,0.312891,
2012-02-04, 03:37:05,VALID,916.11,VALID,0,VALID,92.7693,VALID,0,VALID,19.0398,VALID,130,VALID,0.386328,
2012-02-04, 03:38:05,VALID,916.072,VALID,0,VALID,92.7312,VALID,0,VALID,19.0398,VALID,130,VALID,0.75625,
2012-02-04, 03:39:05,VALID,916.062,VALID,0,VALID,92.6702,VALID,0,VALID,19.0384,VALID,129,VALID,0.953906,
2012-02-04, 03:40:05,VALID,916.047,VALID,0,VALID,92.6474,VALID,0,VALID,19.0398,VALID,129,VALID,0.683984,
2012-02-04, 03:41:05,VALID,916.067,VALID,0,VALID,92.6779,VALID,0,VALID,18.9994,VALID,129,VALID,0.622656,
2012-02-04, 03:42:05,VALID,916.04,VALID,0,VALID,92.7922,VALID,0,VALID,18.9799,VALID,129,VALID,0.863672,
2012-02-04, 03:43:05,VALID,916.023,VALID,0,VALID,92.8685,VALID,0,VALID,19.0008,VALID,129,VALID,0.527344,
2012-02-04, 03:44:05,VALID,916.045,VALID,0,VALID,92.8913,VALID,0.107441,VALID,18.9604,VALID,129,VALID,0.871484,